#timestamp,LO_Frequency,Hit,StdDev 
1560510015.8,286047002.5,N
1560510035.7,286047001.3,N
1560510055.5,286047002.7,N
1560510075.3,286046999.6,N
1560510095.2,286047000.1,N
1560510115.0,286047000.8,N
1560510115.9,286047000.8,N
1560510135.7,286046998.4,N
1560510155.6,286046997.1,N
1560510175.4,286046996.8,N
1560510195.3,286046999.1,N
1560510215.1,286046998.8,N
1560510235.8,286047000.0,N
1560510255.7,286046999.6,N
1560510275.5,286046995.0,N
1560510295.4,286046993.8,N
1560510315.2,286046992.2,N
1560510335.0,286046991.4,N
1560510335.9,286046991.4,N
1560510355.8,286046989.9,N
1560510375.6,286046988.7,N
1560510395.4,286046989.3,N
1560510415.3,286046989.8,N
1560510435.1,286046987.8,N
1560510455.9,286046990.0,N
1560510475.7,286046987.4,N
1560510495.5,286046989.3,N
1560510515.4,286046985.8,N
1560510535.2,286046987.1,N
1560510555.1,286046985.5,N
1560510556.0,286046985.5,N
1560510575.8,286046986.4,N
1560510595.6,286046985.1,N
1560510615.5,286046981.0,Y
1560510635.3,286046986.9,P
1560510655.1,286046985.3,P
1560510675.9,286046985.3,P
1560510695.7,286046985.6,Y
1560510715.6,286046999.9,P
1560510735.4,286046999.8,N
1560510755.2,286047003.3,N
1560510775.1,286047003.0,N
1560510776.0,286047003.0,N
1560510795.8,286047003.6,N
1560510815.7,286047005.9,N
1560510835.5,286047009.1,N
1560510855.3,286047004.9,N
1560510875.2,286047006.0,N
1560510895.0,286047003.3,N
1560510895.9,286047003.3,N
1560510915.7,286047003.6,N
1560510935.6,286047002.1,N
1560510955.4,286047002.5,N
1560510975.3,286047001.6,N
1560510995.1,286047000.5,N
1560510996.0,286047000.5,N
1560511015.8,286046997.1,N
1560511035.7,286046996.6,N
1560511055.5,286046999.3,N
1560511075.4,286046997.0,N
1560511095.2,286046997.6,N
1560511115.0,286046998.8,N
1560511115.9,286046998.8,N
1560511135.8,286046998.2,N
1560511155.6,286046998.5,N
1560511175.4,286046996.9,N
1560511195.3,286046997.2,N
1560511215.1,286046997.5,N
1560511235.9,286046993.9,N
1560511255.7,286046996.5,N
1560511275.5,286046996.1,N
1560511295.4,286046995.8,N
1560511315.2,286046994.2,N
1560511335.0,286046990.2,N
1560511336.0,286046990.2,N
1560511355.8,286046991.1,N
1560511375.6,286046987.4,Y
1560511395.5,286046991.0,P
1560511415.3,286046991.1,N
1560511435.1,286046992.1,N
1560511455.9,286046991.7,N
1560511475.7,286047000.9,N
1560511495.6,286047005.8,N
1560511515.4,286047002.1,N
1560511535.2,286046999.4,N
1560511555.1,286046997.1,N
1560511556.0,286046997.1,N
1560511575.8,286046995.7,N
1560511595.6,286046992.0,N
1560511615.5,286046992.1,N
1560511635.3,286046990.9,N
1560511655.2,286046991.0,N
1560511675.9,286046991.2,N
1560511695.7,286046991.3,N
1560511715.6,286046985.7,Y
1560511735.4,286046991.0,P
1560511755.2,286046991.5,P
1560511775.1,286046987.0,P
1560511776.0,286046987.0,Y
1560511795.8,286046993.7,P
1560511815.7,286046992.1,P
1560511835.5,286046992.6,P
1560511855.3,286046988.8,Y
1560511875.2,286046997.6,P
1560511895.0,286046994.9,N
1560511895.9,286046994.9,N
1560511915.8,286046997.9,N
1560511935.6,286046998.0,N
1560511955.4,286046997.7,N
1560511975.3,286046999.5,N
1560511995.1,286046995.0,N
1560512015.8,286046997.6,N
1560512035.7,286046997.9,N
1560512055.5,286046993.4,Y
1560512075.4,286046999.1,P
1560512095.2,286046997.0,N
1560512115.0,286046997.9,N
1560512115.9,286046997.9,N
1560512135.8,286046994.9,Y
1560512155.6,286046996.5,P
1560512175.5,286046996.6,P
1560512195.3,286046996.6,P
1560512215.1,286046997.8,Y
1560512235.9,286046996.5,P
1560512255.7,286046999.4,P
1560512275.5,286046996.7,N
1560512295.4,286046995.0,Y
1560512315.2,286046998.7,P
1560512335.1,286047000.8,N
1560512336.0,286047000.8,N
1560512355.8,286047000.0,N
1560512375.0,286047000.6,N
1560512375.9,286047000.6,N
1560512395.8,286047000.7,N
1560512415.6,286047000.3,N
1560512435.4,286046998.7,N
1560512455.3,286046997.6,N
1560512475.1,286046995.6,Y
1560512495.9,286046996.3,P
1560512515.7,286046995.9,N
1560512535.6,286046993.5,P
1560512555.4,286046992.0,Y
1560512575.2,286046996.1,P
1560512595.1,286046996.0,P
1560512615.8,286046996.2,P
1560512635.7,286046996.7,Y
1560512655.5,286047002.0,P
1560512675.4,286047002.4,N
1560512695.2,286047001.0,N
1560512715.0,286046999.0,N
1560512715.9,286046999.0,N
1560512735.8,286047001.1,N
1560512755.6,286047000.9,N
1560512775.5,286047000.5,N
1560512795.3,286046998.4,N
1560512815.1,286046998.4,N
1560512835.9,286046999.1,N
1560512855.7,286046997.7,N
1560512875.5,286046997.9,N
1560512895.4,286046997.5,N
1560512915.2,286046994.9,N
1560512935.1,286046997.1,N
1560512936.0,286046997.1,N
1560512955.8,286046997.6,N
1560512975.7,286046999.6,N
1560512995.5,286046997.6,N
1560513015.3,286046995.6,N
1560513035.2,286046997.7,N
1560513055.0,286046997.1,N
1560513055.9,286046997.1,N
1560513075.8,286046996.5,N
1560513095.6,286046997.2,N
1560513115.4,286046994.9,N
1560513135.3,286046997.6,N
1560513155.1,286046997.3,N
1560513175.9,286046997.1,N
1560513195.7,286046998.7,N
1560513215.5,286047000.9,N
1560513235.4,286046999.9,N
1560513255.2,286047000.0,N
1560513275.0,286046999.9,N
1560513276.0,286046999.9,N
1560513295.8,286046999.7,N
1560513315.6,286046999.1,N
1560513335.5,286046999.6,N
1560513355.3,286047001.2,N
1560513375.1,286046998.2,N
1560513395.9,286046997.2,N
1560513415.7,286046998.5,N
1560513435.6,286046998.4,N
1560513455.4,286046996.5,N
1560513475.2,286046997.3,N
1560513495.1,286046997.2,N
1560513496.0,286046997.2,N
1560513515.8,286046994.9,Y
1560513535.7,286046998.3,P
1560513555.5,286046998.7,P
1560513575.3,286047001.1,P
1560513595.2,286046998.3,N
